Zurück zum Katalog

STARLINK-35530

AktivKommunikationVLEO
NORAD 65921·PAYLOAD·🇺🇸 United States

Gestartet Oct 8, 2025 von Vandenberg Space Force Base

Loading…

Nächste Überflüge (nächste 24 Stunden)

TLE

AktuellSource: CelesTrak SupGP

Epoche: Sep 15, 2026, 03:40 UTC

1 65921C 25225M   26258.15326389  .00072717  00000+0  21483-2 0  2580
2 65921  53.1597   2.8046 0001260  97.0842 341.3627 15.34356485    15

Verfolge STARLINK-35530 in Echtzeit mit AllMySat

Download on the App Store